Wind_Speed
12 10 9 9 9 7 6 6 7 6 7 8 9 9 11 10 10 8 10 11 12 13 14 15 14 14 14 13 11 11 6 1
6 8 10 7 8 8 7 7 8 9 10 12 13 12 17 15 14 18 16 15 15 17 17 18 16 15 13 13 13 6 5 6
7 7 5 4 6 9 7 9 10 10 11 14 12 12 11 15 16 19 18 18 18 15 18 18 14 9 12 14 13 5 6 7
10 4 3 8 4 8 9 10 7 6 7 7 5 9 7 12 13 17 17 20 18 15 19 17 13 10 11 12 10 10 16 11
10 10 6 8 3 7 4 5 2 4 2 7 5 10 4 6 8 12 16 17 15 20 17 17 15 23 15 15 16 17 12 10
10 6 5 6 5 3 5 3 1 2 4 5 6 3 5 6 6 10 10 11 14 15 16 16 18 17 20 20 17 15 13 12
14 13 7 2 1 2 1 5 3 4 1 7 7 7 9 9 10 10 10 12 14 15 18 18 18 18 17 17 20 18 17 17
13 12 8 5 4 6 2 1 0 3 2 7 8 8 10 12 14 14 14 13 16 22 20 22 23 22 20 16 20 23 21 19
15 8 12 6 5 4 2 5 4 2 4 10 11 10 11 13 17 18 17 17 22 26 21 22 23 23 24 24 22 23 24 22
3 8 5 7 4 4 3 5 7 3 7 8 11 11 14 17 18 18 19 22 27 28 28 25 24 26 27 26 26 27 25 25
4 4 4 4 7 3 6 9 7 3 10 8 12 12 12 20 21 21 23 27 29 28 25 24 25 26 28 28 28 27 29 28
2 6 8 12 5 6 5 7 7 7 7 11 17 18 15 18 22 21 21 26 27 24 25 28 31 32 32 32 33 34 33 33
7 11 7 4 2 5 6 5 7 7 9 14 16 15 23 26 27 24 24 26 25 26 30 32 33 29 31 32 33 33 33 34
6 3 4 6 0 3 6 7 9 11 12 8 13 24 24 26 24 25 24 26 29 30 25 27 28 25 27 31 33 33 29 31
8 6 5 3 3 2 5 9 9 11 16 23 26 19 23 23 20 23 26 27 30 33 31 26 29 26 23 24 29 29 28 28
6 6 4 6 8 7 10 8 11 15 15 16 19 21 20 20 24 26 28 30 32 33 23 25 28 28 29 25 26 28 21 27
4 4 6 9 14 14 15 17 17 16 17 20 20 18 22 28 26 28 31 33 23 21 19 18 19 18 19 28 31 32 32 23
7 8 9 11 12 16 14 14 15 16 17 18 18 24 31 29 27 27 23 20 20 23 25 27 28 29 23 23 29 27 26 26
9 10 12 13 14 12 12 14 14 15 17 21 27 28 25 27 23 19 19 23 26 28 27 26 25 22 25 22 20 21 22 22
11 10 12 14 15 14 13 14 14 16 20 26 24 24 22 20 25 25 24 20 18 22 19 21 20 26 26 17 16 13 11 14
Wind_Direction
110 89 75 54 40 35 53 47 49 41 37 31 22 15 15 4 353 359 350 346 343 342 343 342 340 337 338 340 346 351 8 14
99 59 41 33 15 28 52 55 53 43 35 33 42 32 15 359 357 349 343 340 338 338 337 335 335 335 342 344 344 5 355 357
128 130 122 76 6 19 46 57 49 40 29 33 25 31 8 348 347 354 352 349 345 343 342 343 349 357 349 337 343 0 312 289
160 110 156 97 112 26 15 28 24 32 13 34 36 335 11 1 350 347 349 347 351 349 340 347 342 331 316 308 303 293 272 288
176 181 156 123 69 77 99 59 42 24 20 329 8 44 342 336 346 344 340 341 346 328 338 329 315 310 314 285 270 269 277 274
190 191 189 128 135 117 104 165 170 112 294 336 355 41 319 355 325 352 349 335 330 329 322 312 313 311 305 312 307 303 289 253
191 201 190 174 76 180 242 143 226 260 39 305 348 360 341 346 351 350 335 337 325 312 304 300 295 288 293 296 291 292 287 291
203 185 205 192 164 246 207 341 198 31 285 284 314 331 339 343 331 333 330 314 305 308 316 313 311 305 304 287 287 288 293 265
217 274 165 198 202 260 161 221 262 194 267 292 303 317 312 319 322 321 315 303 304 311 306 297 294 292 290 290 287 290 290 288
307 178 210 254 167 222 170 249 253 241 278 275 297 307 306 309 305 300 301 296 307 309 304 299 293 290 288 284 283 281 274 277
237 219 197 242 218 209 257 251 267 274 256 290 269 266 292 288 300 303 303 304 307 307 296 293 290 285 284 284 284 285 281 272
190 167 175 190 171 264 249 274 315 294 306 284 278 290 294 289 302 303 300 300 303 299 288 285 287 289 289 288 283 277 270 266
166 214 203 131 203 220 228 233 261 287 282 298 293 315 295 297 310 304 294 293 288 287 290 292 294 294 292 289 287 283 281 277
91 80 126 141 146 329 350 339 333 333 341 294 316 307 293 299 307 308 312 306 299 298 299 301 296 296 293 294 294 292 285 283
85 69 11 334 100 280 290 323 301 292 287 290 300 289 296 313 304 305 305 300 295 297 303 299 298 292 288 289 298 288 297 286
74 75 46 337 336 323 304 325 302 308 318 307 297 300 307 294 295 301 299 298 300 305 295 284 280 288 281 273 271 283 311 301
65 46 350 327 327 328 334 332 331 319 311 307 307 301 290 300 306 304 300 305 312 299 289 290 285 281 290 298 288 284 289 297
3 355 338 336 319 320 329 326 319 315 317 315 303 299 315 318 316 311 319 302 288 288 294 294 294 296 297 301 308 306 301 296
329 327 331 328 329 329 315 302 307 311 312 306 311 325 324 330 327 319 302 298 297 294 293 291 292 287 308 315 301 298 294 293
318 316 326 326 316 311 318 316 313 310 304 312 322 321 326 330 313 313 307 299 292 293 300 308 317 314 316 298 307 312 316 316
Height
1553 1555 1556 1556 1557 1557 1556 1558 1557 1561 1561 1560 1560 1560 1559 1559 1559 1559 1558 1557 1556 1556 1555 1554 1553 1552 1550 1549 1548 1547 1547 1548
1555 1556 1557 1557 1558 1558 1558 1559 1559 1560 1562 1561 1561 1561 1559 1558 1559 1559 1558 1557 1556 1555 1554 1553 1551 1550 1549 1548 1547 1547 1546 1546
1557 1558 1561 1560 1560 1559 1559 1559 1560 1560 1561 1562 1562 1560 1560 1560 1559 1559 1558 1557 1555 1553 1552 1552 1550 1548 1547 1547 1546 1546 1545 1546
1558 1559 1559 1560 1561 1559 1559 1561 1559 1561 1561 1563 1564 1561 1561 1561 1559 1559 1558 1556 1555 1553 1552 1551 1549 1547 1546 1546 1545 1544 1543 1542
1554 1557 1559 1558 1560 1560 1563 1563 1563 1563 1562 1562 1562 1561 1561 1560 1560 1558 1557 1556 1554 1553 1552 1551 1549 1548 1545 1544 1542 1540 1540 1540
1554 1553 1556 1556 1558 1560 1561 1562 1562 1563 1562 1561 1560 1560 1559 1558 1558 1557 1557 1556 1555 1553 1552 1550 1548 1545 1543 1540 1539 1537 1537 1536
1549 1550 1550 1552 1557 1558 1558 1560 1561 1561 1561 1559 1559 1559 1557 1557 1556 1555 1555 1555 1553 1551 1549 1547 1545 1543 1540 1537 1535 1534 1533 1532
1550 1551 1551 1552 1554 1556 1557 1559 1560 1560 1560 1558 1558 1558 1556 1555 1555 1554 1553 1552 1550 1548 1545 1543 1540 1539 1537 1535 1533 1530 1529 1528
1547 1545 1549 1549 1552 1555 1557 1558 1558 1559 1559 1557 1556 1555 1554 1553 1552 1550 1549 1548 1546 1544 1541 1540 1538 1536 1534 1531 1529 1526 1523 1522
1548 1547 1546 1547 1553 1555 1557 1557 1556 1557 1557 1555 1554 1552 1550 1549 1549 1548 1547 1544 1542 1540 1537 1535 1533 1531 1529 1527 1525 1523 1520 1518
1548 1547 1548 1549 1552 1555 1555 1554 1555 1555 1555 1555 1552 1550 1549 1546 1546 1544 1543 1540 1537 1535 1532 1530 1527 1526 1523 1522 1520 1517 1515 1513
1549 1547 1549 1550 1552 1553 1554 1553 1553 1554 1554 1552 1549 1548 1545 1543 1542 1541 1539 1535 1533 1530 1527 1525 1522 1519 1516 1514 1511 1510 1509 1509
1546 1546 1548 1550 1552 1552 1552 1551 1550 1551 1551 1549 1547 1546 1544 1541 1538 1535 1533 1530 1528 1525 1522 1519 1515 1515 1511 1507 1504 1502 1501 1499
1547 1547 1548 1549 1550 1551 1550 1550 1550 1549 1549 1547 1546 1543 1540 1538 1535 1532 1529 1525 1522 1520 1516 1513 1510 1510 1508 1503 1497 1494 1495 1494
1549 1549 1548 1549 1550 1549 1548 1548 1548 1546 1544 1543 1540 1537 1536 1535 1532 1528 1525 1521 1516 1513 1511 1508 1503 1502 1502 1501 1495 1488 1487 1486
1549 1550 1550 1548 1547 1547 1546 1545 1543 1542 1541 1539 1536 1534 1533 1530 1527 1524 1519 1515 1511 1508 1506 1502 1498 1494 1492 1492 1491 1488 1483 1475
1550 1550 1550 1547 1546 1545 1543 1541 1540 1540 1538 1535 1533 1530 1528 1525 1522 1517 1513 1510 1505 1503 1498 1496 1494 1490 1487 1485 1484 1483 1482 1477
1550 1550 1549 1548 1544 1543 1541 1540 1538 1536 1534 1531 1527 1525 1522 1519 1515 1512 1509 1505 1499 1497 1494 1493 1490 1488 1486 1484 1481 1477 1474 1474
1549 1548 1547 1546 1544 1541 1538 1536 1534 1532 1529 1526 1523 1521 1517 1514 1511 1507 1504 1499 1496 1493 1490 1487 1486 1483 1480 1479 1476 1473 1470 1469
1547 1546 1545 1544 1540 1538 1535 1533 1531 1528 1525 1523 1520 1517 1514 1513 1508 1504 1499 1495 1491 1488 1485 1484 1482 1479 1477 1474 1471 1470 1468 1467